Meteopurmerend
purmerend
Purmerend - Baaienwijk



My webcam  My webcam


waarschuwing voor Onweer Meer informatie blitzortung!


Regen radar Meer informatie rain snow radar


Bezoek onze andere website:

CandyAppleRed WebdesignWebdesign Purmerend Candy Apple Red

MeteopurmerendBlog

Template documentation
and downloads



Onweer van: 26-07-2021 13:00 tot: 21:00 waarschuwing voor: Onweer niveau: Geel info button
Enkele onweersbuien, lokaal met hagel en veel neerslag in korte tijd.Kans op blikseminslag, hagel en veel neerslag in korte tijd.Verkeer en buitenactiviteiten kunnen hinder ondervinden.Mijd open water en open gebied, schuil niet onder bomen.Volg weerberichten en waarschuwingen.

15 daagse weersverwachting Eindhoven (NL)

  • Overzicht
  • Per uur
  • 15 dagen
  • Extra
  • Vergelijk
  • Kaarten
  • Dagkaart
  • Meer »
  • Info
  • Statistieken
  • Directe link
    Temp 6h Neerslag Wind  
 05:56     21:34    Daglengte: 15:38 Vandaag
20:00
19°
1.9 mm
3
 05:57     21:33    Daglengte: 15:36 Morgen
02:00
16°
 
2
08:00
17°
 
3
14:00
23°
 
4
20:00
19°
6.3 mm
3
 05:59     21:31    Daglengte: 15:32 Woensdag 28 Jul
02:00
16°
1.6 mm
4
08:00
16°
 
5
14:00
20°
10.5 mm
6
20:00
18°
15.5 mm
4
 06:00     21:30    Daglengte: 15:30 Donderdag 29 Jul
02:00
15°
13.2 mm
5
08:00
15°
8.8 mm
6
Locatie info
Region: Noord-Brabant
Latitude: 51.4345°N
Longitude: 5.4841°E
22 masl
Postcode: 5611 SH
Temp/Neerslag /Baro Onweer/Dauwpunt
    Temp Baro 1h Neerslag Dauwpunt Wind UV Bewolking  
 05:56     21:34    Daglengte: 15:38 Vandaag
15:00
22°
1009.8 hPa
47%
14.1°
4
Windvlaag: 6.4 m/s
52%
16:00
22°
1009.9 hPa 0.4 mm
76%
13.7°
4
Windvlaag: 6.2 m/s
58%
17:00
21°
1009.9 hPa 0.8 mm
78%
12.9°
4
Windvlaag: 5.2 m/s
54% warningclass
18:00
20°
1009.9 hPa 0.2 mm
80%
14.1°
4
Windvlaag: 5.3 m/s
54% warningclass
19:00
20°
1009.7 hPa 0.5 mm
82%
15.3°
4
Windvlaag: 4.8 m/s
74% warningclass
20:00
19°
1009.9 hPa
45%
15.7°
3
Windvlaag: 4.7 m/s
62%
21:00
18°
1010.3 hPa
33%
15.7°
3
Windvlaag: 4.3 m/s
66%
22:00
18°
1010.9 hPa
24%
16.3°
2
Windvlaag: 3.5 m/s
48%
23:00
17°
1011.2 hPa
14%
16.6°
2
Windvlaag: 3.7 m/s
61%
 05:57     21:33    Daglengte: 15:36 Morgen
00:00
17°
1011.3 hPa
14%
16.6°
2
Windvlaag: 3.9 m/s
72%
01:00
16°
1011.3 hPa
14%
16.1°
2
Windvlaag: 4.2 m/s
16%
02:00
16°
1011.4 hPa
14%
15.6°
2
Windvlaag: 4.1 m/s
52%
03:00
16°
1011.4 hPa
14%
15.5°
2
Windvlaag: 5.3 m/s
64%
04:00
16°
1011.3 hPa
14%
15.9°
3
Windvlaag: 5.2 m/s
59%
05:00
16°
1011.2 hPa
14%
15.9°
3
Windvlaag: 5.5 m/s
54%
06:00
16°
1011.1 hPa
14%
15.6°
3
Windvlaag: 5.4 m/s
60%
07:00
16°
1011.2 hPa
14%
15.3°
3
Windvlaag: 5.4 m/s
50%
08:00
17°
1011.3 hPa
14%
15.3°
3
Windvlaag: 5.1 m/s
65%
09:00
17°
1011.2 hPa
16%
15.5°
4
Windvlaag: 6.9 m/s
82%
10:00
19°
1011.5 hPa
19%
15.7°
4
Windvlaag: 7.2 m/s
86%
11:00
20°
1011.3 hPa
14%
15.1°
3
Windvlaag: 6.6 m/s
63%
12:00
21°
1011.1 hPa
15%
17.5°
4
Windvlaag: 6.7 m/s
46%
13:00
21°
1010.7 hPa
24%
18.0°
4
Windvlaag: 6.6 m/s
77%
14:00
23°
1010.4 hPa
80%
17.2°
4
Windvlaag: 5.6 m/s
20%
15:00
21°
1010.1 hPa 1.1 mm
82%
15.8°
4
Windvlaag: 5.4 m/s
64% warningclass
16:00
20°
1010.3 hPa 1.8 mm
82%
15.8°
4
Windvlaag: 8 m/s
65%
17:00
20°
1010.2 hPa
82%
17.6°
4
Windvlaag: 5.6 m/s
48%
18:00
20°
1010.0 hPa
82%
17.1°
3
Windvlaag: 5.2 m/s
68%
19:00
19°
1009.9 hPa 1.7 mm
82%
16.2°
3
Windvlaag: 6.6 m/s
81%
20:00
19°
1009.7 hPa 1.7 mm
82%
16.3°
3
Windvlaag: 6.6 m/s
59%
21:00
18°
1009.8 hPa 1.6 mm
82%
16.0°
3
Windvlaag: 4.6 m/s
65%
22:00
18°
1010.0 hPa
69%
16.1°
3
Windvlaag: 5.2 m/s
63%
23:00
17°
1010.2 hPa
16%
16.0°
3
Windvlaag: 5 m/s
64%
 05:59     21:31    Daglengte: 15:32 Woensdag 28 Jul
00:00
17°
1010.1 hPa
14%
16.0°
3
Windvlaag: 7.4 m/s
72%
01:00
17°
1009.9 hPa
18%
15.9°
3
Windvlaag: 7.3 m/s
62%
02:00
16°
1009.7 hPa
52%
14.8°
4
Windvlaag: 7.4 m/s
56%
03:00
16°
1009.3 hPa
23%
14.5°
3
Windvlaag: 8 m/s
74%
04:00
16°
1009.1 hPa
19%
14.7°
3
Windvlaag: 8.2 m/s
14%
05:00
15°
1009.0 hPa
24%
14.9°
3
Windvlaag: 8.1 m/s
50%
06:00
16°
1009.1 hPa
82%
15.0°
3
Windvlaag: 8.3 m/s
50%
07:00
16°
1009.1 hPa
23%
14.9°
4
Windvlaag: 8.3 m/s
55%
08:00
16°
1009.2 hPa
15%
13.9°
5
Windvlaag: 8.7 m/s
58%
09:00
17°
1009.3 hPa
36%
14.1°
5
Windvlaag: 8.9 m/s
58%
10:00
17°
1009.3 hPa
80%
14.4°
6
Windvlaag: 9.5 m/s
74%
11:00
18°
1009.0 hPa 3.1 mm
94%
12.5°
6
Windvlaag: 9.7 m/s
24%
12:00
19°
1008.9 hPa 1.9 mm
89%
12.9°
6
Windvlaag: 10.1 m/s
54%
13:00
19°
1009.0 hPa 2.4 mm
95%
12.2°
6
Windvlaag: 10.3 m/s
76%
14:00
20°
1008.9 hPa 3.1 mm
95%
13.6°
6
Windvlaag: 8.8 m/s
63%
15:00
20°
1009.1 hPa 2.1 mm
100%
13.7°
6
Windvlaag: 8.9 m/s
36%
16:00
20°
1009.3 hPa 2.3 mm
100%
12.2°
6
Windvlaag: 8.6 m/s
62%
17:00
20°
1009.4 hPa 2.4 mm
100%
11.5°
6
Windvlaag: 8.6 m/s
23%
18:00
20°
1009.2 hPa 2.4 mm
100%
13.0°
6
Windvlaag: 9 m/s
63%
19:00
19°
1009.0 hPa 2.3 mm
95%
11.2°
5
Windvlaag: 8.3 m/s
56%
20:00
18°
1009.1 hPa 4.0 mm
100%
14.8°
4
Windvlaag: 7.2 m/s
16%
21:00
18°
1009.1 hPa
22%
13.9°
4
Windvlaag: 7.6 m/s
53%
22:00
17°
1009.1 hPa
21%
14.2°
4
Windvlaag: 7.8 m/s
31%
23:00
17°
1009.0 hPa 4.1 mm
21%
13.6°
4
Windvlaag: 7.6 m/s
39%
 06:00     21:30    Daglengte: 15:30 Donderdag 29 Jul
00:00
16°
1009.0 hPa 4.7 mm
21%
14.2°
4
Windvlaag: 7.9 m/s
77%
01:00
16°
1008.8 hPa 4.4 mm
21%
13.1°
4
Windvlaag: 8.9 m/s
79%
02:00
15°
1008.5 hPa
21%
12.5°
5
Windvlaag: 8.3 m/s
26%
03:00
15°
1008.2 hPa
21%
11.8°
5
Windvlaag: 10 m/s
86%
04:00
15°
1008.1 hPa
21%
11.9°
5
Windvlaag: 10.4 m/s
86%
05:00
14°
1007.9 hPa
21%
12.1°
5
Windvlaag: 10.5 m/s
81%
06:00
14°
1008.2 hPa 4.3 mm
21%
11.8°
5
Windvlaag: 10 m/s
52%
07:00
14°
1008.3 hPa
21%
11.6°
6
Windvlaag: 9.6 m/s
52%
08:00
15°
1008.6 hPa 4.5 mm
21%
11.6°
6
Windvlaag: 10 m/s
53%
09:00
16°
1010.1 hPa
21%
12.0°
6
Windvlaag: 13.5 m/s
16%
10:00
17°
1010.3 hPa
21%
11.7°
6
Windvlaag: 13.3 m/s
14%
11:00
18°
1010.5 hPa
21%
11.3°
6
Windvlaag: 13 m/s
14%
12:00
19°
1010.4 hPa
21%
10.3°
6
Windvlaag: 12.8 m/s
16%
13:00
20°
1010.5 hPa
21%
10.1°
6
Windvlaag: 13.7 m/s
24%
14:00
20°
1010.4 hPa
21%
10.4°
7
Windvlaag: 13.8 m/s
79%
Temp/Neerslag /Baro Onweer/Dauwpunt
    Temp Baro Neerslag Dauwpunt Wind Bewolking  
 05:56     21:34    Daglengte: 15:38 Vandaag
17:00
21°
1009.9 hPa 1.1 mm 12.9°
4
54% warningclass
20:00
19°
1009.9 hPa 0.7 mm 15.7°
3
62%
23:00
17°
1011.2 hPa   16.6°
2
61%
 05:57     21:33    Daglengte: 15:36 Morgen
02:00
16°
1011.4 hPa   15.6°
2
52%
05:00
16°
1011.2 hPa   15.9°
3
54%
08:00
17°
1011.3 hPa   15.3°
3
65%
11:00
20°
1011.3 hPa   15.1°
3
63%
14:00
23°
1010.4 hPa   17.2°
4
20%
17:00
20°
1010.2 hPa 3.0 mm 17.6°
4
48%
20:00
19°
1009.7 hPa 3.4 mm 16.3°
3
59%
23:00
17°
1010.2 hPa 1.6 mm 16.0°
3
64%
 05:59     21:31    Daglengte: 15:32 Woensdag 28 Jul
02:00
16°
1009.7 hPa   14.8°
4
56%
05:00
15°
1009.0 hPa   14.9°
3
50%
08:00
16°
1009.2 hPa   13.9°
5
58%
11:00
18°
1009.0 hPa 3.1 mm 12.5°
6
24%
14:00
20°
1008.9 hPa 7.4 mm 13.6°
6
63%
17:00
20°
1009.4 hPa 6.9 mm 11.5°
6
23%
20:00
18°
1009.1 hPa 8.7 mm 14.8°
4
16%
23:00
17°
1009.0 hPa 4.1 mm 13.6°
4
39%
 06:00     21:30    Daglengte: 15:30 Donderdag 29 Jul
02:00
15°
1008.5 hPa 9.1 mm 12.5°
5
26%
05:00
14°
1007.9 hPa   12.1°
5
81%
08:00
15°
1008.6 hPa 8.8 mm 11.6°
6
53%
11:00
18°
1010.5 hPa   11.3°
6
14%
14:00
20°
1010.4 hPa   10.4°
7
79%
17:00
21°
1011.2 hPa 8.5 mm 10.8°
8
1%
20:00
19°
1011.2 hPa 8.6 mm 10.6°
6
0%
23:00
16°
1011.7 hPa 8.6 mm 9.2°
5
0%
 06:02     21:28    Daglengte: 15:26 Vrijdag 30 Jul
02:00
14°
1011.7 hPa 8.6 mm 9.2°
4
0%
05:00
12°
1011.5 hPa 8.6 mm 9.3°
4
0%
08:00
14°
1011.9 hPa 8.6 mm 10.3°
4
0%
11:00
19°
1011.4 hPa 8.6 mm 11.0°
4
1%
14:00
22°
1010.3 hPa 8.6 mm 10.8°
4
1%
17:00
23°
1009.1 hPa 8.6 mm 12.1°
4
1%
20:00
22°
1007.8 hPa 8.6 mm 13.7°
1
1%
23:00
17°
1007.5 hPa 9.8 mm 15.4°
3
1%
 06:03     21:27    Daglengte: 15:24 Zaterdag 31 Jul
02:00
15°
1007.8 hPa 10.4 mm 14.4°
2
1%
05:00
14°
1006.8 hPa 10.5 mm 13.6°
3
1%
08:00
15°
1006.4 hPa 10.5 mm 12.7°
3
0%
11:00
19°
1005.1 hPa 10.8 mm 11.8°
8
0%
14:00
18°
1004.4 hPa 13.0 mm 13.7°
9
1%
17:00
19°
1004.2 hPa 14.4 mm 13.9°
9
1%
20:00
18°
1006.3 hPa 14.7 mm 12.8°
6
0%
23:00
14°
1008.1 hPa 14.7 mm 11.4°
3
0%
 06:05     21:25    Daglengte: 15:20 Zondag 01 Aug
02:00
13°
1007.7 hPa 14.7 mm 11.3°
3
0%
05:00
14°
1007.2 hPa 14.9 mm 12.8°
3
1%
08:00
14°
1007.2 hPa 15.3 mm 12.6°
4
1%
11:00
16°
1007.0 hPa 15.5 mm 13.3°
5
1%
14:00
18°
1007.7 hPa 17.8 mm 14.3°
6
1%
17:00
19°
1008.6 hPa 19.0 mm 9.4°
6
1%
20:00
15°
1009.9 hPa 19.8 mm 12.6°
5
1%
23:00
12°
1012.2 hPa 19.8 mm 10.9°
3
0%
 06:06     21:23    Daglengte: 15:17 Maandag 02 Aug
02:00
11°
1013.5 hPa 19.8 mm 9.6°
3
0%
05:00
10°
1014.0 hPa 19.8 mm 8.9°
3
0%
08:00
13°
1015.1 hPa 19.8 mm 10.2°
3
0%
11:00
17°
1015.9 hPa 19.9 mm 9.7°
4
0%
14:00
18°
1016.2 hPa 40.3 mm 9.9°
3
1%
20:00
18°
1015.3 hPa 41.2 mm 10.5°
0
1%
 06:08     21:22    Daglengte: 15:14 Dinsdag 03 Aug
02:00
15°
1015.7 hPa 41.3 mm 9.2°
1
1%
08:00
14°
1016.1 hPa 41.3 mm 10.0°
4
1%
14:00
22°
1015.5 hPa 41.3 mm 9.2°
5
1%
20:00
20°
1014.4 hPa 41.3 mm 10.8°
4
1%
 06:09     21:20    Daglengte: 15:11 Woensdag 04 Aug
02:00
16°
1013.7 hPa 41.3 mm 10.0°
4
1%
08:00
17°
1012.0 hPa 41.3 mm 9.0°
5
1%
14:00
22°
1010.2 hPa 41.3 mm 12.6°
8
1%
20:00
19°
1009.4 hPa 42.6 mm 13.9°
6
1%
 06:11     21:18    Daglengte: 15:07 Donderdag 05 Aug
02:00
15°
1010.0 hPa 43.3 mm 11.4°
5
0%
08:00
15°
1008.9 hPa 43.3 mm 12.5°
5
1%
14:00
20°
1010.4 hPa 1.3 mm 13.7°
3
78%
20:00
18°
1009.1 hPa 2.1 mm 14.1°
2
81%
 06:12     21:16    Daglengte: 15:04 Vrijdag 06 Aug
02:00
14°
1008.6 hPa 0.7 mm 12.2°
2
71%
08:00
14°
1008.2 hPa 0.7 mm 12.6°
3
70%
14:00
20°
1008.1 hPa 1.5 mm 13.4°
4
67%
20:00
18°
1007.5 hPa 2.1 mm 13.6°
2
67%
 06:14     21:15    Daglengte: 15:01 Zaterdag 07 Aug
02:00
14°
1008.1 hPa 0.9 mm 11.6°
3
56%
08:00
14°
1008.0 hPa 0.8 mm 12.1°
4
61%
14:00
19°
1008.4 hPa 2.1 mm 13.2°
5
70%
20:00
18°
1012.7 hPa 1.5 mm 13.9°
2
62%
 06:15     21:13    Daglengte: 14:58 Zondag 08 Aug
02:00
14°
1013.3 hPa 0.8 mm 12.1°
2
58%
08:00
15°
1013.1 hPa 0.5 mm 12.8°
3
61%
14:00
20°
1013.4 hPa 1.1 mm 14.0°
4
63%
20:00
18°
1013.6 hPa 1.5 mm 13.8°
2
71%
 06:17     21:11    Daglengte: 14:54 Maandag 09 Aug
02:00
14°
1015.2 hPa 0.2 mm 11.6°
2
49%
08:00
14°
1015.8 hPa 0.3 mm 12.0°
3
44%
14:00
20°
1016.4 hPa 0.2 mm 13.1°
3
49%
20:00
19°
1016.2 hPa 0.3 mm 13.9°
2
50%
 06:18     21:09    Daglengte: 14:51 Dinsdag 10 Aug
02:00
14°
1017.3 hPa 0.2 mm 11.8°
2
52%
08:00
15°
1017.3 hPa 0.1 mm 12.4°
2
56%
14:00
21°
1017.4 hPa 0.7 mm 14.0°
3
61%
  CAPE Lifted Index Hail Supercell Tornado SRH 3km CL BTM PRES CL TOP PRES Swiss DWD icon SMHI TS
 05:56     21:34    Daglengte: 15:38 Vandaag
15:00 637 J/kg -2.2 K 0 % 0 % 0 % 0 m²/s² 0 0 -0.73 3
16:00 645 J/kg -2.3 K 0 % 0 % 0 % 0 m²/s² 0 0 -0.89 80
17:00 655 J/kg -2.3 K 0 % 0 % 0 % 0 m²/s² 0 0 -1.1 95
18:00 784 J/kg -3.1 K 0 % 0 % 0 % 0 m²/s² 0 0 -2.5 3
19:00 766 J/kg -3.0 K 0 % 0 % 0 % 0 m²/s² 0 0 -2.52 80
20:00 270 J/kg -0.9 K 0 % 0 % 0 % 0 m²/s² 0 0 -0.57 3
21:00 141 J/kg -0.6 K 0 % 0 % 0 % 0 m²/s² 0 0 0.15 3
22:00 282 J/kg -1.6 K 0 % 0 % 0 % 0 m²/s² 0 0 -0.4 3
23:00 544 J/kg -2.4 K 0 % 0 % 0 % 0 m²/s² 0 0 -1.62 3
 05:57     21:33    Daglengte: 15:36 Morgen
00:00 147 J/kg -0.5 K 0 % 0 % 0 % 0 m²/s² 0 0 0.25 3
01:00 52 J/kg 0.2 K 0 % 0 % 0 % 0 m²/s² 0 0 1.04 3
02:00 4 J/kg 0.5 K 0 % 0 % 0 % 0 m²/s² 0 0 2.57 3
03:00 10 J/kg -0.6 K 0 % 0 % 0 % 0 m²/s² 0 0 1.47 3
04:00 73 J/kg -1.4 K 0 % 0 % 0 % 0 m²/s² 0 0 1.24 3
05:00 120 J/kg -1.8 K 0 % 0 % 0 % 0 m²/s² 0 0 0.99 3
06:00 18 J/kg -1.0 K 0 % 0 % 0 % 0 m²/s² 0 0 1.85 3
07:00 0 J/kg -1.0 K 0 % 0 % 0 % 0 m²/s² 0 0 2.18 3
08:00 26 J/kg -1.2 K 0 % 0 % 0 % 0 m²/s² 0 0 2.25 3
09:00 58 J/kg -0.7 K 0 % 0 % 0 % 0 m²/s² 0 0 2.84 3
10:00 239 J/kg -1.5 K 0 % 0 % 0 % 0 m²/s² 0 0 1.2 3
11:00 516 J/kg -2.2 K 0 % 0 % 0 % 0 m²/s² 0 0 -0.22 3
12:00 721 J/kg -2.9 K 0 % 0 % 0 % 0 m²/s² 0 0 -1.52 3
13:00 822 J/kg -3.4 K 0 % 0 % 0 % 0 m²/s² 0 0 -2.32 3
14:00 908 J/kg -3.4 K 0 % 0 % 0 % 0 m²/s² 0 0 -2.83 2
15:00 933 J/kg -3.2 K 0 % 0 % 0 % 0 m²/s² 0 0 -2.72 80
16:00 623 J/kg -1.9 K 0 % 0 % 0 % 0 m²/s² 0 0 -1.51 80
17:00 73 J/kg 0.4 K 0 % 0 % 0 % 0 m²/s² 0 0 0.7 80
18:00 96 J/kg 0.0 K 0 % 0 % 0 % 0 m²/s² 0 0 0.27 80
19:00 2 J/kg 1.5 K 0 % 0 % 0 % 0 m²/s² 0 0 1.71 80
20:00 70 J/kg -0.4 K 0 % 0 % 0 % 0 m²/s² 0 0 -0.13 80
21:00 233 J/kg -1.0 K 0 % 0 % 0 % 0 m²/s² 0 0 -0.61 3
22:00 293 J/kg -1.1 K 0 % 0 % 0 % 0 m²/s² 0 0 -1.07 61
23:00 98 J/kg -0.1 K 0 % 0 % 0 % 0 m²/s² 0 0 0.17 3
 05:59     21:31    Daglengte: 15:32 Woensdag 28 Jul
00:00 118 J/kg -0.7 K 0 % 0 % 0 % 0 m²/s² 0 0 0.05 3
01:00 162 J/kg -1.0 K 0 % 0 % 0 % 0 m²/s² 0 0 -0.07 3
02:00 112 J/kg -0.8 K 0 % 0 % 0 % 0 m²/s² 0 0 0.55 3
03:00 36 J/kg 0.4 K 0 % 0 % 0 % 0 m²/s² 0 0 2.2 3
04:00 0 J/kg 0.4 K 0 % 0 % 0 % 0 m²/s² 0 0 2.53 3
05:00 0 J/kg 1.0 K 0 % 0 % 0 % 0 m²/s² 0 0 3.07 3
06:00 0 J/kg 0.8 K 0 % 0 % 0 % 0 m²/s² 0 0 2.66 3
07:00 0 J/kg 2.5 K 0 % 0 % 0 % 0 m²/s² 0 0 4.69 3
08:00 0 J/kg 3.1 K 0 % 0 % 0 % 0 m²/s² 0 0 5.44 3
09:00 0 J/kg 3.4 K 0 % 0 % 0 % 0 m²/s² 0 0 5.89 3
10:00 1 J/kg 3.1 K 0 % 0 % 0 % 0 m²/s² 0 0 6.4 80
11:00 30 J/kg 1.9 K 0 % 0 % 0 % 0 m²/s² 0 0 5.38 80
12:00 66 J/kg 1.4 K 0 % 0 % 0 % 0 m²/s² 0 0 4.97 3
13:00 95 J/kg 0.9 K 0 % 0 % 0 % 0 m²/s² 0 0 3.45 80
14:00 164 J/kg 0.4 K 0 % 0 % 0 % 0 m²/s² 0 0 2.65 3
15:00 232 J/kg -0.2 K 0 % 0 % 0 % 0 m²/s² 0 0 2.35 2
16:00 259 J/kg -0.2 K 0 % 0 % 0 % 0 m²/s² 0 0 2.56 80
17:00 295 J/kg -0.6 K 0 % 0 % 0 % 0 m²/s² 0 0 1.44 80
18:00 353 J/kg -0.9 K 0 % 0 % 0 % 0 m²/s² 0 0 1.56 80
19:00 211 J/kg 0.2 K 0 % 0 % 0 % 0 m²/s² 0 0 2.06 80
20:00 156 J/kg 1.4 K 0 % 0 % 0 % 0 m²/s² 0 0 3.77 80
21:00 266 J/kg 1.1 K 0 % 0 % 0 % 0 m²/s² 0 0 3.47 1
22:00 199 J/kg 2.2 K 0 % 0 % 0 % 0 m²/s² 0 0 2.68 1
23:00 156 J/kg 2.2 K 0 % 0 % 0 % 0 m²/s² 0 0 2.23 1
 06:00     21:30    Daglengte: 15:30 Donderdag 29 Jul
00:00 83 J/kg 4.3 K 0 % 0 % 0 % 0 m²/s² 0 0 5.17 2
01:00 1 J/kg 6.2 K 0 % 0 % 0 % 0 m²/s² 0 0 8.57 1
02:00 3 J/kg 7.3 K 0 % 0 % 0 % 0 m²/s² 0 0 8.89 2
03:00 0 J/kg 7.2 K 0 % 0 % 0 % 0 m²/s² 0 0 10.62 2
04:00 44 J/kg 7.2 K 0 % 0 % 0 % 0 m²/s² 0 0 12.21 2
05:00 86 J/kg 7.0 K 0 % 0 % 0 % 0 m²/s² 0 0 12.13 2
06:00 64 J/kg 7.9 K 0 % 0 % 0 % 0 m²/s² 0 0 13.45 2
07:00 57 J/kg 8.7 K 0 % 0 % 0 % 0 m²/s² 0 0 13.56 2
08:00 81 J/kg 8.9 K 0 % 0 % 0 % 0 m²/s² 0 0 13.04 2
09:00 142 J/kg 8.3 K 0 % 0 % 0 % 0 m²/s² 0 0 13.49 2
10:00 162 J/kg 7.9 K 0 % 0 % 0 % 0 m²/s² 0 0 13.21 1
11:00 159 J/kg 7.2 K 0 % 0 % 0 % 0 m²/s² 0 0 12.39 2
12:00 108 J/kg 6.6 K 0 % 0 % 0 % 0 m²/s² 0 0 10.14 2
13:00 121 J/kg 5.1 K 0 % 0 % 0 % 0 m²/s² 0 0 7.95 3
14:00 95 J/kg 4.1 K 0 % 0 % 0 % 0 m²/s² 0 0 9.32 3
Temp Baro Wind Neerslag
  EWN Forecast EWN WRFDA DWD ICON FMI HIRLAM MET Norway GFSWXSIM
 05:56     21:34    Daglengte: 15:38 Vandaag
17:00 20.8° 1009.9 hPa 4.1 m/s 1.1 mm 22.7° 1008.9 hPa 4.0 m/s 0.3 mm 20.2° 1010.2 hPa 3.8 m/s 0.2 mm 23.1° 1009.0 hPa 4.3 m/s 0.0 mm 21.3° 1009.9 hPa 5.4 m/s
20:00 18.8° 1009.9 hPa 3.3 m/s 0.7 mm 19.3° 1009.4 hPa 3.4 m/s 2.3 mm 18.7° 1009.9 hPa 3.5 m/s 0.5 mm 20.6° 1009.2 hPa 3.3 m/s 0.0 mm 20.1° 1009.6 hPa 5.1 m/s
23:00 17.3° 1011.2 hPa 2.4 m/s 0.0 mm 17.1° 1010.4 hPa 2.4 m/s 6.2 mm 17.4° 1011.5 hPa 2.5 m/s 0.0 mm 17.8° 1010.1 hPa 1.8 m/s 0.0 mm 16.7° 1010.7 hPa 3.4 m/s
 05:57     21:33    Daglengte: 15:36 Morgen
02:00 16.0° 1011.4 hPa 2.2 m/s 0.0 mm 15.0° 1010.2 hPa 2.5 m/s 6.2 mm 16.8° 1011.6 hPa 2.2 m/s 0.0 mm 16.1° 1010.5 hPa 2.5 m/s 0.0 mm 15.3° 1011.5 hPa 2.5 m/s
05:00 16.2° 1011.2 hPa 2.7 m/s 0.0 mm 15.2° 1009.7 hPa 3.4 m/s 6.2 mm 16.6° 1011.6 hPa 2.3 m/s 0.0 mm 15.9° 1010.2 hPa 2.5 m/s 0.0 mm 14.8° 1011.1 hPa 2.6 m/s
08:00 16.6° 1011.3 hPa 3.1 m/s 0.0 mm 17.4° 1010.1 hPa 3.3 m/s 6.2 mm 16.9° 1012.0 hPa 3.1 m/s 0.0 mm 16.2° 1010.2 hPa 3.6 m/s 0.0 mm 16.5° 1011.1 hPa 3.4 m/s
11:00 19.9° 1011.3 hPa 3.3 m/s 0.0 mm 20.8° 1010.0 hPa 3.4 m/s 6.2 mm 19.8° 1011.8 hPa 3.3 m/s 0.0 mm 21.1° 1010.4 hPa 3.8 m/s 0.0 mm 20.0° 1011.0 hPa 4.5 m/s
14:00 22.5° 1010.4 hPa 3.6 m/s 0.0 mm 22.1° 1010.0 hPa 1.9 m/s 9.0 mm 23.0° 1011.0 hPa 4.3 m/s 0.0 mm 23.0° 1009.6 hPa 3.8 m/s 0.0 mm 22.2° 1010.7 hPa 4.6 m/s
17:00 20.4° 1010.2 hPa 3.7 m/s 3.0 mm 19.0° 1010.0 hPa 4.8 m/s 13.7 mm 20.7° 1010.8 hPa 3.1 m/s 2.2 mm 21.2° 1008.5 hPa 4.6 m/s 0.0 mm 19.4° 1010.2 hPa 2.6 m/s
20:00 18.7° 1009.7 hPa 3.0 m/s 3.4 mm 17.5° 1009.0 hPa 3.4 m/s 17.9 mm 18.8° 1010.5 hPa 2.8 m/s 2.0 mm 19.6° 1008.2 hPa 3.8 m/s 0.0 mm 19.0° 1009.5 hPa 2.9 m/s
23:00 17.1° 1010.2 hPa 3.0 m/s 1.6 mm 17.0° 1009.3 hPa 1.7 m/s 22.5 mm 17.5° 1010.4 hPa 2.5 m/s 0.2 mm 17.2° 1010.0 hPa 4.0 m/s 0.0 mm 16.5° 1010.3 hPa 3.9 m/s
 05:59     21:31    Daglengte: 15:32 Woensdag 28 Jul
02:00 16.4° 1009.7 hPa 3.6 m/s 0.0 mm 15.7° 1008.5 hPa 3.0 m/s 26.4 mm 16.8° 1009.3 hPa 2.7 m/s 0.0 mm 16.5° 1010.3 hPa 3.8 m/s 0.0 mm 15.4° 1010.2 hPa 4.4 m/s
05:00 15.4° 1009.0 hPa 3.0 m/s 0.0 mm 14.2° 1008.1 hPa 2.9 m/s 26.4 mm 16.3° 1008.6 hPa 2.8 m/s 0.0 mm 14.1° 1010.0 hPa 1.9 m/s 0.0 mm 14.7° 1009.5 hPa 5.0 m/s
08:00 16.1° 1009.2 hPa 4.8 m/s 0.0 mm 16.0° 1008.6 hPa 5.4 m/s 26.4 mm 16.9° 1008.2 hPa 3.9 m/s 0.1 mm 16.0° 1010.0 hPa 4.9 m/s 0.0 mm 16.2° 1009.9 hPa 5.2 m/s
11:00 17.8° 1009.0 hPa 6.0 m/s 3.1 mm 19.0° 1008.4 hPa 6.1 m/s 26.4 mm 17.6° 1009.0 hPa 5.5 m/s 0.6 mm 19.3° 1009.6 hPa 6.9 m/s
14:00 19.6° 1008.9 hPa 6.1 m/s 7.4 mm 20.3° 1008.5 hPa 6.9 m/s 26.4 mm 20.0° 1009.0 hPa 5.4 m/s 0.5 mm 20.3° 1010.1 hPa 7.8 m/s
17:00 19.9° 1009.4 hPa 5.8 m/s 6.9 mm 22.4° 1008.2 hPa 6.9 m/s 26.9 mm 19.7° 1009.6 hPa 5.2 m/s 1.3 mm 20.0° 1009.9 hPa 6.5 m/s
20:00 18.2° 1009.1 hPa 4.2 m/s 8.7 mm 18.3° 1008.1 hPa 3.8 m/s 30.8 mm 18.5° 1009.1 hPa 4.1 m/s 0.7 mm 18.2° 1009.1 hPa 5.8 m/s
23:00 16.7° 1009.0 hPa 4.1 m/s 4.1 mm 17.6° 1008.3 hPa 4.2 m/s 34.8 mm 16.6° 1009.0 hPa 3.4 m/s 0.0 mm 15.4° 1009.0 hPa 4.6 m/s
 06:00     21:30    Daglengte: 15:30 Donderdag 29 Jul
02:00 15.4° 1008.5 hPa 4.6 m/s 9.1 mm 15.3° 1007.7 hPa 4.4 m/s 37.5 mm 15.4° 1009.1 hPa 4.5 m/s 0.0 mm 14.5° 1008.6 hPa 6.1 m/s
05:00 14.3° 1007.9 hPa 4.8 m/s 0.0 mm 14.1° 1007.3 hPa 4.2 m/s 37.5 mm 15.1° 1009.2 hPa 4.5 m/s 0.0 mm 13.1° 1009.0 hPa 6.4 m/s
08:00 14.8° 1008.6 hPa 6.2 m/s 8.8 mm 14.8° 1007.5 hPa 7.0 m/s 37.5 mm 15.3° 1010.2 hPa 4.6 m/s 0.0 mm 13.9° 1009.2 hPa 7.3 m/s
11:00 18.1° 1010.5 hPa 6.0 m/s 0.0 mm 17.9° 1007.7 hPa 8.5 m/s 37.5 mm 18.2° 1011.1 hPa 5.4 m/s 0.0 mm 17.6° 1010.6 hPa 8.5 m/s
14:00 19.9° 1010.4 hPa 6.8 m/s 0.0 mm 19.6° 1008.0 hPa 9.4 m/s 37.5 mm 20.0° 1011.1 hPa 6.2 m/s 0.0 mm 21.1° 1011.0 hPa 7.8 m/s
17:00 20.6° 1011.2 hPa 7.6 m/s 8.5 mm 20.6° 1011.2 hPa 7.6 m/s 8.5 mm
20:00 18.7° 1011.2 hPa 6.1 m/s 8.6 mm 18.7° 1011.2 hPa 6.1 m/s 8.6 mm
23:00 15.7° 1011.7 hPa 4.9 m/s 8.6 mm 15.7° 1011.7 hPa 4.9 m/s 8.6 mm
 06:02     21:28    Daglengte: 15:26 Vrijdag 30 Jul
02:00 13.7° 1011.7 hPa 4.2 m/s 8.6 mm 13.7° 1011.7 hPa 4.2 m/s 8.6 mm
05:00 12.3° 1011.5 hPa 4.0 m/s 8.6 mm 12.3° 1011.5 hPa 4.0 m/s 8.6 mm
08:00 13.9° 1011.9 hPa 4.3 m/s 8.6 mm 13.9° 1011.9 hPa 4.3 m/s 8.6 mm
11:00 18.9° 1011.4 hPa 4.4 m/s 8.6 mm 18.9° 1011.4 hPa 4.4 m/s 8.6 mm
14:00 22.3° 1010.3 hPa 4.2 m/s 8.6 mm 22.3° 1010.3 hPa 4.2 m/s 8.6 mm
17:00 23.1° 1009.1 hPa 3.7 m/s 8.6 mm 23.1° 1009.1 hPa 3.7 m/s 8.6 mm
20:00 21.7° 1007.8 hPa 1.2 m/s 8.6 mm 21.7° 1007.8 hPa 1.2 m/s 8.6 mm
23:00 17.4° 1007.5 hPa 2.6 m/s 9.8 mm 17.4° 1007.5 hPa 2.6 m/s 9.8 mm
 06:03     21:27    Daglengte: 15:24 Zaterdag 31 Jul
02:00 15.1° 1007.8 hPa 2.4 m/s 10.4 mm 15.1° 1007.8 hPa 2.4 m/s 10.4 mm
05:00 14.1° 1006.8 hPa 3.2 m/s 10.5 mm 14.1° 1006.8 hPa 3.2 m/s 10.5 mm
08:00 14.8° 1006.4 hPa 3.3 m/s 10.5 mm 14.8° 1006.4 hPa 3.3 m/s 10.5 mm
11:00 18.6° 1005.1 hPa 7.6 m/s 10.8 mm 18.6° 1005.1 hPa 7.6 m/s 10.8 mm
14:00 18.1° 1004.4 hPa 9.4 m/s 13.0 mm 18.1° 1004.4 hPa 9.4 m/s 13.0 mm
17:00 18.7° 1004.2 hPa 9.2 m/s 14.4 mm 18.7° 1004.2 hPa 9.2 m/s 14.4 mm
20:00 18.0° 1006.3 hPa 5.8 m/s 14.7 mm 18.0° 1006.3 hPa 5.8 m/s 14.7 mm
23:00 14.1° 1008.1 hPa 3.1 m/s 14.7 mm 14.1° 1008.1 hPa 3.1 m/s 14.7 mm
 06:05     21:25    Daglengte: 15:20 Zondag 01 Aug
02:00 13.1° 1007.7 hPa 3.2 m/s 14.7 mm 13.1° 1007.7 hPa 3.2 m/s 14.7 mm
05:00 13.6° 1007.2 hPa 3.4 m/s 14.9 mm 13.6° 1007.2 hPa 3.4 m/s 14.9 mm
08:00 13.7° 1007.2 hPa 4.1 m/s 15.3 mm 13.7° 1007.2 hPa 4.1 m/s 15.3 mm
11:00 16.0° 1007.0 hPa 4.5 m/s 15.5 mm 16.0° 1007.0 hPa 4.5 m/s 15.5 mm
14:00 17.7° 1007.7 hPa 6.1 m/s 17.8 mm 17.7° 1007.7 hPa 6.1 m/s 17.8 mm
17:00 18.9° 1008.6 hPa 5.8 m/s 19.0 mm 18.9° 1008.6 hPa 5.8 m/s 19.0 mm
20:00 15.5° 1009.9 hPa 4.8 m/s 19.8 mm 15.5° 1009.9 hPa 4.8 m/s 19.8 mm
23:00 12.4° 1012.2 hPa 2.9 m/s 19.8 mm 12.4° 1012.2 hPa 2.9 m/s 19.8 mm
 06:06     21:23    Daglengte: 15:17 Maandag 02 Aug
02:00 11.2° 1013.5 hPa 2.7 m/s 19.8 mm 11.2° 1013.5 hPa 2.7 m/s 19.8 mm
05:00 10.4° 1014.0 hPa 2.7 m/s 19.8 mm 10.4° 1014.0 hPa 2.7 m/s 19.8 mm
08:00 12.7° 1015.1 hPa 3.0 m/s 19.8 mm 12.7° 1015.1 hPa 3.0 m/s 19.8 mm
11:00 17.4° 1015.9 hPa 4.2 m/s 19.9 mm 17.4° 1015.9 hPa 4.2 m/s 19.9 mm
14:00 17.7° 1016.2 hPa 3.3 m/s 20.4 mm 17.7° 1016.2 hPa 3.3 m/s 20.4 mm
20:00 18.3° 1015.3 hPa 0.5 m/s 20.6 mm 18.3° 1015.3 hPa 0.5 m/s 20.6 mm
 06:08     21:22    Daglengte: 15:14 Dinsdag 03 Aug
02:00 14.5° 1015.7 hPa 1.5 m/s 20.6 mm 14.5° 1015.7 hPa 1.5 m/s 20.6 mm
08:00 13.7° 1016.1 hPa 3.5 m/s 20.6 mm 13.7° 1016.1 hPa 3.5 m/s 20.6 mm
14:00 21.6° 1015.5 hPa 5.0 m/s 20.6 mm 21.6° 1015.5 hPa 5.0 m/s 20.6 mm
20:00 19.8° 1014.4 hPa 4.4 m/s 20.6 mm 19.8° 1014.4 hPa 4.4 m/s 20.6 mm
 06:09     21:20    Daglengte: 15:11 Woensdag 04 Aug
02:00 15.6° 1013.7 hPa 4.5 m/s 20.6 mm 15.6° 1013.7 hPa 4.5 m/s 20.6 mm
08:00 16.7° 1012.0 hPa 5.0 m/s 20.6 mm 16.7° 1012.0 hPa 5.0 m/s 20.6 mm
14:00 22.3° 1010.2 hPa 7.5 m/s 20.7 mm 22.3° 1010.2 hPa 7.5 m/s 20.7 mm
20:00 19.4° 1009.4 hPa 5.9 m/s 21.6 mm 19.4° 1009.4 hPa 5.9 m/s 21.6 mm
 06:11     21:18    Daglengte: 15:07 Donderdag 05 Aug
02:00 14.9° 1010.0 hPa 4.6 m/s 21.6 mm 14.9° 1010.0 hPa 4.6 m/s 21.6 mm
08:00 14.6° 1008.9 hPa 4.8 m/s 21.6 mm 14.6° 1008.9 hPa 4.8 m/s 21.6 mm
14:00 19.7° 1010.4 hPa 3.3 m/s 1.3 mm
20:00 18.3° 1009.1 hPa 2.0 m/s 2.1 mm
 06:12     21:16    Daglengte: 15:04 Vrijdag 06 Aug
02:00 14.3° 1008.6 hPa 2.0 m/s 0.7 mm
08:00 14.4° 1008.2 hPa 2.9 m/s 0.7 mm
14:00 19.8° 1008.1 hPa 3.7 m/s 1.5 mm
20:00 17.8° 1007.5 hPa 2.2 m/s 2.1 mm
 06:14     21:15    Daglengte: 15:01 Zaterdag 07 Aug
02:00 13.5° 1008.1 hPa 2.9 m/s 0.9 mm
08:00 14.1° 1008.0 hPa 3.7 m/s 0.8 mm
14:00 18.9° 1008.4 hPa 5.3 m/s 2.1 mm
20:00 18.3° 1012.7 hPa 2.5 m/s 1.5 mm
 06:15     21:13    Daglengte: 14:58 Zondag 08 Aug
02:00 14.1° 1013.3 hPa 2.2 m/s 0.8 mm
08:00 14.8° 1013.1 hPa 3.3 m/s 0.5 mm
14:00 20.0° 1013.4 hPa 4.0 m/s 1.1 mm
20:00 18.4° 1013.6 hPa 2.3 m/s 1.5 mm
 06:17     21:11    Daglengte: 14:54 Maandag 09 Aug
02:00 13.7° 1015.2 hPa 2.0 m/s 0.2 mm
08:00 14.2° 1015.8 hPa 2.8 m/s 0.3 mm
14:00 20.3° 1016.4 hPa 3.4 m/s 0.2 mm
20:00 18.9° 1016.2 hPa 2.0 m/s 0.3 mm
 06:18     21:09    Daglengte: 14:51 Dinsdag 10 Aug
02:00 14.1° 1017.3 hPa 1.9 m/s 0.2 mm